SCP
7 7 8 9 9 8 7 6 5 6 5 5 4 4 4 4 5 5 5 5 5 5 3 3 2 2 1 1 1 1 1 0 0 0 0 1 1 1 1 1 0 0 0
8 8 8 8 8 8 7 6 5 6 5 5 5 5 5 5 5 5 5 5 5 4 3 2 2 2 1 1 1 1 1 1 0 0 0 0 0 1 0 0 0 0 0
10 9 8 7 7 7 6 5 5 6 6 6 6 5 5 5 4 4 5 5 4 4 3 2 2 2 1 1 1 1 1 1 0 0 0 0 0 0 0 0 0 0 0
12 10 8 7 6 5 5 5 6 6 6 6 6 5 5 5 5 6 6 5 4 4 3 3 2 2 1 1 1 1 1 1 1 0 0 0 0 0 0 0 0 0 0
11 9 8 8 6 5 5 6 6 7 7 7 6 5 4 5 6 7 7 6 5 4 4 3 3 3 2 2 2 2 1 1 1 1 0 0 0 0 0 0 0 0 0
8 8 8 8 7 5 6 7 8 8 7 7 6 5 4 4 5 6 6 6 5 4 4 4 4 3 3 2 2 2 2 1 1 1 1 0 0 0 0 0 0 0 0
7 7 7 7 6 5 6 7 8 7 6 6 6 5 4 4 4 5 5 5 4 4 4 4 4 4 3 3 3 3 3 2 2 1 1 1 0 0 0 0 0 0 0
6 6 6 5 4 4 5 6 6 6 5 6 6 5 5 4 4 4 4 4 4 3 3 4 4 4 3 3 4 4 4 3 3 2 1 1 0 0 0 0 0 0 0
5 5 5 5 4 4 5 5 5 5 5 5 5 5 4 4 4 4 4 4 3 3 4 4 4 3 3 3 3 4 4 4 3 2 2 1 0 0 0 0 0 0 0
5 5 6 5 5 5 6 6 5 6 6 6 5 4 4 4 5 5 4 4 3 3 4 4 4 4 3 3 3 3 4 4 3 2 1 1 0 0 0 0 0 0 0
6 6 6 6 5 6 6 6 6 7 8 8 6 5 5 5 5 5 4 4 4 4 4 4 5 4 3 3 3 3 3 3 3 2 1 1 0 0 0 0 0 0 0
6 6 5 5 5 5 6 7 7 8 8 8 7 6 5 5 4 4 4 4 4 4 4 4 4 4 3 3 3 3 3 3 2 1 1 1 1 1 0 0 0 0 0
5 5 5 5 5 5 6 7 7 7 7 6 6 5 5 4 4 3 3 4 4 4 4 4 4 4 3 3 3 3 3 2 1 1 1 1 1 1 0 0 0 0 0
4 4 5 5 4 4 5 6 6 6 5 5 4 4 4 4 4 3 3 4 4 4 4 4 3 3 3 3 3 3 2 1 1 1 1 1 1 0 0 0 0 0 0
3 3 4 4 4 4 4 4 5 5 5 4 4 3 4 4 4 4 4 4 4 4 4 4 3 3 2 2 2 2 1 1 1 1 1 1 0 0 0 0 0 0 0
2 3 3 4 4 5 5 4 4 4 4 4 3 3 3 3 3 3 4 4 4 4 4 3 2 2 2 1 1 1 1 1 1 1 1 1 0 0 0 0 0 0 0
2 3 3 4 4 5 5 4 4 4 4 4 4 4 3 3 3 3 4 4 4 4 3 3 2 1 1 1 0 0 1 1 1 1 1 1 0 0 0 0 0 0 0
2 3 3 3 4 4 4 4 3 4 4 4 4 4 4 3 3 3 4 4 4 4 3 3 2 2 1 0 0 0 1 1 2 2 1 1 1 1 1 1 1 1 1
2 3 3 3 3 3 3 3 3 4 4 4 4 4 4 4 4 4 4 5 5 4 3 3 3 2 1 1 0 0 1 1 1 1 1 1 1 1 1 1 1 1 1
3 3 3 3 3 4 4 4 4 4 4 4 4 4 4 4 5 5 5 6 5 5 4 4 4 3 2 1 0 0 0 1 1 1 1 1 1 0 0 1 1 1 2
2 3 3 4 4 4 4 4 4 4 4 4 4 4 5 5 5 6 7 7 6 6 6 5 5 4 3 1 0 0 0 1 1 1 1 1 0 0 0 0 1 1 1
2 3 4 5 6 5 5 5 5 5 5 4 5 5 5 5 5 6 7 7 7 7 7 6 6 5 4 2 1 0 0 0 1 1 1 0 0 0 0 0 0 0 0
5 5 7 8 8 7 6 6 5 5 5 5 5 5 5 5 5 6 6 6 7 6 6 6 5 5 4 3 1 0 0 0 0 0 0 0 0 0 0 0 0 0 0
7 8 9 9 9 8 6 6 6 5 5 5 5 5 6 6 6 6 6 6 6 6 5 5 5 5 4 3 2 1 0 0 0 0 0 0 0 0 0 0 0 0 0
7 7 7 8 7 6 5 6 6 5 5 4 5 5 6 6 7 7 6 5 5 5 4 4 4 4 3 3 2 2 1 1 0 0 0 1 1 1 1 1 1 1 1
5 5 5 5 5 4 4 5 6 5 5 4 5 5 5 6 7 7 5 4 4 3 3 3 3 3 2 2 2 1 1 1 0 0 1 1 1 1 1 1 1 1 1
Wind_Speed
14 13 13 14 14 12 12 11 11 10 8 7 7 6 5 4 4 4 6 6 4 4 2 2 3 1 2 2 2 2 2 2 1 0 1 1 2 2 2 2 2 3 3
15 14 13 13 13 13 12 11 11 11 10 7 6 5 5 4 4 4 5 6 5 5 5 3 3 3 2 2 1 1 1 2 2 1 1 1 1 1 3 3 3 3 3
17 16 15 14 14 14 14 12 12 12 10 9 6 5 4 3 4 5 4 5 5 4 2 4 2 3 3 3 2 2 2 1 1 1 0 1 1 2 1 1 2 2 2
16 16 16 15 14 14 13 12 11 11 10 10 9 10 8 6 6 5 5 5 5 5 4 4 3 2 2 4 4 3 2 1 1 2 1 1 1 1 2 0 2 3 3
17 17 17 15 14 14 13 12 11 11 10 10 9 9 7 6 5 6 7 6 5 5 5 4 3 2 2 3 2 2 0 1 2 1 2 2 2 2 2 3 3 2 3
16 15 15 14 12 13 13 13 12 10 10 10 10 8 8 7 7 7 7 6 4 4 5 5 4 3 2 3 3 2 2 0 1 2 1 1 1 2 2 2 3 3 3
14 15 15 15 14 14 13 13 13 11 11 11 10 9 8 7 7 7 7 7 6 5 5 5 4 3 3 3 3 2 1 1 0 1 2 2 1 1 1 1 1 3 3
14 15 16 15 14 15 14 14 13 12 12 11 9 8 8 6 6 6 6 6 5 5 6 5 5 4 4 4 3 3 3 2 1 1 1 2 2 2 1 1 1 1 2
14 15 16 16 15 15 14 15 14 13 12 11 10 9 8 7 7 7 6 4 4 6 7 6 6 5 4 4 3 2 2 3 2 2 1 1 1 1 1 1 1 0 0
13 14 15 15 14 14 14 14 14 13 12 12 11 10 8 7 6 6 6 6 6 6 8 7 6 5 5 4 4 3 3 3 2 1 1 1 1 1 1 1 1 1 1
12 13 13 14 15 14 15 14 14 13 12 12 10 9 9 8 7 6 6 6 6 7 8 7 6 6 6 5 3 3 5 4 3 2 2 1 1 2 2 1 1 1 1
10 12 13 14 14 15 15 14 14 14 13 11 10 9 9 9 9 8 7 7 7 8 8 7 7 7 6 5 5 5 5 5 4 3 3 3 2 1 1 2 2 1 2
9 10 10 12 13 13 13 13 13 14 13 12 12 11 10 10 9 8 8 8 8 8 8 7 7 7 7 6 6 5 4 5 5 4 4 3 2 2 1 1 1 1 1
9 10 9 9 11 12 12 13 13 13 13 12 12 12 11 10 9 9 9 9 8 8 8 7 7 7 7 7 6 5 5 4 4 4 4 4 4 3 2 2 1 1 1
9 9 8 8 9 11 11 12 13 12 12 12 12 12 11 10 10 9 9 9 9 10 8 8 7 7 7 8 8 6 7 5 4 4 4 4 4 3 2 1 1 1 1
8 9 9 8 8 9 10 10 11 12 11 12 12 11 11 11 10 10 10 10 10 9 9 8 8 8 9 10 11 7 6 6 6 5 4 4 5 6 5 3 2 1 2
6 8 8 8 7 7 7 8 9 10 11 11 11 11 11 12 11 12 11 10 10 9 8 8 8 8 6 10 12 10 4 4 4 5 5 6 7 9 6 7 8 7 8
4 6 7 7 8 8 8 7 9 10 11 11 11 11 11 11 11 10 10 10 9 8 8 8 8 7 8 12 12 11 6 4 4 5 5 5 4 5 5 5 6 6 7
1 3 5 7 6 7 8 8 9 10 11 12 11 11 12 11 11 11 10 9 8 8 8 8 8 8 8 13 14 12 6 5 6 6 7 6 6 6 6 4 4 4 5
2 2 4 5 6 5 5 7 8 8 9 10 10 10 11 11 11 10 9 8 7 8 8 8 8 8 8 13 15 13 6 6 6 6 7 9 8 8 8 6 5 6 5
3 2 2 3 4 5 5 6 7 7 8 8 8 8 9 9 9 8 8 8 8 8 8 7 7 8 8 14 17 16 7 7 6 6 6 6 10 11 11 9 6 7 5
2 1 2 2 3 4 5 5 5 5 6 7 7 7 8 8 9 8 8 8 8 8 7 6 7 7 7 10 14 16 13 8 5 4 3 3 7 9 9 8 8 8 6
3 2 2 2 2 2 4 4 4 4 5 5 6 6 8 7 6 8 9 8 7 8 8 8 8 7 6 8 14 16 15 12 6 3 2 1 5 7 7 10 11 8 5
4 3 2 2 2 2 2 3 3 4 5 5 5 5 6 6 5 6 7 7 8 8 8 8 7 6 6 6 7 8 9 10 7 5 4 4 5 6 6 6 7 7 7
4 3 3 3 3 2 2 1 2 3 4 5 5 5 5 6 5 4 2 4 4 5 5 5 5 5 5 6 9 8 7 6 6 5 4 4 4 4 5 5 5 5 5
3 3 3 2 2 2 1 1 2 3 4 4 4 5 5 5 5 5 4 3 3 4 4 4 3 2 4 7 10 10 10 9 8 5 4 5 5 5 5 5 4 4 5
Wind_Direction
167 165 161 161 161 159 161 165 164 157 157 164 171 169 166 165 159 155 154 163 165 148 181 146 152 178 131 127 143 148 171 208 188 158 142 136 145 153 166 171 144 155 164
166 164 161 164 165 163 164 166 167 162 167 171 171 168 160 165 162 155 152 162 162 161 178 161 168 147 132 138 146 139 177 222 166 180 159 139 129 203 165 161 161 158 154
168 165 168 171 171 171 171 174 171 166 171 169 166 162 148 156 156 149 158 165 163 164 168 154 150 151 168 159 173 179 199 212 180 183 127 138 150 170 126 151 126 122 127
168 170 172 174 175 174 174 170 169 168 171 172 174 171 170 174 168 159 157 162 167 169 162 155 147 169 157 146 190 175 205 203 225 172 163 154 126 145 137 170 143 146 134
170 171 174 173 174 176 175 171 169 172 174 177 175 176 173 168 158 153 155 162 168 167 166 158 154 165 159 138 123 114 188 235 262 225 178 175 175 200 159 163 166 161 149
169 168 168 165 173 174 173 170 169 173 175 176 176 181 173 167 161 161 162 167 165 170 170 160 158 168 152 134 131 139 172 287 350 352 335 169 186 199 169 155 166 164 154
163 165 166 169 174 174 172 167 167 171 172 172 172 174 172 167 164 167 173 176 169 169 170 157 158 158 143 143 140 152 177 175 93 344 328 346 353 39 55 122 161 150 150
162 165 169 172 176 175 170 166 168 170 171 171 170 170 171 173 174 181 173 181 172 162 152 149 160 160 167 164 154 165 173 141 139 236 2 335 358 2 12 44 104 171 174
164 166 170 174 175 173 171 170 170 171 173 172 168 174 179 183 178 174 180 176 161 155 155 160 164 166 165 153 161 172 157 137 177 207 208 292 327 329 355 8 14 5 201
162 164 169 171 170 168 169 170 171 172 173 173 176 179 182 181 176 178 186 174 167 151 155 163 162 163 162 162 166 167 151 157 179 169 93 15 334 2 333 6 357 5 6
157 161 165 167 166 165 168 169 169 171 175 179 182 178 177 178 181 185 180 168 159 152 159 162 162 167 171 174 184 186 163 180 182 184 152 148 4 4 348 0 10 360 14
149 155 161 164 166 167 168 168 171 175 178 178 178 179 176 177 183 185 178 168 163 164 165 168 169 177 176 174 186 205 175 178 182 192 173 178 185 152 340 347 351 15 41
143 147 156 161 166 169 167 170 175 178 179 178 179 180 179 181 186 181 176 175 172 174 173 174 178 186 176 178 196 203 185 185 183 184 183 185 186 188 209 287 309 314 299
144 149 154 161 168 168 170 173 177 177 177 178 181 182 182 183 185 180 178 178 177 180 180 179 182 187 185 183 192 197 193 192 187 188 188 188 190 187 197 232 246 286 301
149 152 156 162 169 170 171 175 177 177 176 178 183 182 182 181 184 184 183 182 183 187 182 182 185 188 192 194 190 191 192 190 195 196 197 199 187 150 166 232 5 317 298
158 159 162 165 173 176 176 177 177 176 175 181 185 179 182 181 184 186 187 185 187 187 180 185 189 195 205 194 184 189 196 182 193 200 203 199 181 176 186 201 214 229 272
157 162 168 170 176 182 177 177 177 173 175 182 185 180 183 184 186 190 187 186 186 186 183 186 192 199 196 173 170 180 194 194 198 201 206 225 217 192 195 208 223 235 235
157 162 168 173 177 177 179 183 181 179 181 184 187 183 184 187 187 189 184 182 181 184 186 189 193 192 185 175 173 175 195 212 214 214 215 223 236 213 202 211 213 222 225
109 151 165 169 169 176 182 186 187 186 188 189 190 188 187 187 185 188 184 180 179 183 187 188 192 195 184 178 177 174 193 213 223 226 224 221 220 210 198 215 235 246 256
40 125 154 156 159 168 174 183 188 187 193 194 193 191 187 187 186 184 181 179 177 183 188 192 194 196 185 182 184 185 200 213 220 222 225 224 219 207 201 208 224 243 253
25 71 123 138 149 160 166 181 187 191 190 190 189 183 179 181 180 175 174 172 179 186 194 194 194 197 194 182 188 192 204 215 219 224 217 210 200 203 206 210 221 236 253
30 66 104 114 132 154 163 176 184 187 177 180 183 179 171 182 185 175 177 179 183 186 192 197 200 200 197 186 192 197 209 219 232 236 226 195 184 191 202 213 231 241 253
26 31 70 93 113 134 157 176 176 169 168 166 169 167 167 177 174 174 181 183 187 198 201 201 206 207 197 188 187 196 208 218 225 240 223 222 202 199 212 226 233 235 236
25 30 52 64 72 106 139 159 158 160 162 168 166 167 171 178 175 176 183 189 194 204 207 203 202 201 192 184 181 191 204 212 219 228 226 218 214 223 238 234 228 226 234
22 37 48 51 44 45 84 132 152 157 166 167 165 168 178 179 176 168 160 197 189 203 206 207 202 197 193 192 181 176 185 192 203 204 220 232 229 229 233 233 231 228 230
19 34 43 44 47 39 70 113 137 150 163 172 172 177 177 169 167 165 154 84 101 130 141 137 143 148 162 158 156 161 165 174 177 186 222 231 235 241 243 242 243 240 241